Showing default

HAWK-8B, 59445

Orbit data source: Space-Track

HAWK-8B, 59445 is a payload satellite owned by HawkEye 360 (US) in LEO that was launched on Sun, 07 Apr 2024 UTC via an FALCON 9 launch vehicle from the Air Force Eastern Test Range (AFETR). Payload-class satellites include a variety of spacecraft equipped with specific instruments for various scientific and technological missions. These include communications satellites like Starlink; space stations such as the ISS; scientific satellites like the Hubble; Earth observation satellites from companies like Planet Labs, Umbra, and HawkEye 360; GPS; miniature CubeSats for education and research; and military/defense satellites.

Loading next visibility...
Identifier
59445, 2024-066D
Orbit
LEO
Country
Flag of USUS
Related business
Manufacturer
UTIAS-SFL
Mission
Operational Commercial Sigint
Bus & Motor
HAWK2G, Unknown motor
Mass
31 kg wet, 30 kg dry
Launch date (UTC)
2024-04-07 (2 years ago)
Launch vehicle
FALCON 9
Launch site
Air Force Eastern Test Range (AFETR)
Object type
Payload
Rocket body
Debris
Shape & HBR
Box + 2 Pan, 1.0 m
Radar Cross Section
0.240 m², Medium (>0.1 m² and < 1m²)

Expand to show TLE details & history
Last TLE update: 19 hours ago

TLE from 19 hours ago
0 HAWK-8B
1 59445U 24066D   25293.79665558  .00005103  00000-0  44574-3 0  9993
2 59445  45.6188  74.6899 0004704 230.2601 129.7865 14.97918378 83919
Epoch: 2025-10-20T19:07Z
TLE epoch observation values (Epoch: 2025-10-20T19:07:11.042Z)
Latitude
-0.00006°
Longitude
118.40001°
Altitude
575.489 km
Speed
7.573 km/s
True Right ascension
04h 58m 45s
True Declination
0° 00' 00"
Sunlit
Object was in full shadow at epoch
Visualization orbit readout
Latitude
Unknown
Longitude
Unknown
Altitude
Unknown
Speed
Unknown
Apparent Right ascension
Unknown
Apparent Declination
Unknown
Sunlit
N/A
Visualization observer readout
Local Sidereal Time
09:09:53
Azimuth
Unknown
Elevation
Unknown
Doppler factor
Unknown
Orbital elements
Apogee altitude
578.086 km
Perigee altitude
571.544 km
Semi-major axis
6,952.952 km
Eccentricity
0.00047
Inclination
45.6188°
RAAN
74.6899°
Arg. of periapsis
230.2601°
True anomaly
129.82791°
Mean anomaly
129.7865°
Eccentric anomaly
129.8072°
Mean motion
3.7436 °/min
Orbital period
96.16 mins
BSTAR
0.00044574
Loading maneuver chart data...
Computing Atmospheric mass density...
Loading historical data...
Loading historical data...
Loading historical data...
Loading historical data...
Loading historical data...
Loading historical data...
Loading historical data...

Documentation

Showing up to 5 results
|